STARLINK-32248

Last updated on Mon Oct 21 2024 00:02:04 GMT+0000 (Coordinated Universal Time)

1 61219U 24171V 24294.58334491 -.01486249 00000+0 -41640-1 0 9993 2 61219 53.1590 150.0250 0001076 79.9243 310.7761 15.39222076 6003

Satellite not in orbit